[[{"header":{"parameterUnit":"m.s-1","parameterCategory":1,"la1":30.2991,"la2":30.254,"lo1":-89.0895,"lo2":-89.0444,"dx":0.0017,"dy":0.0017,"nx":28,"ny":28,"refTime":"2023-01-17T09:00:00:Z","depth":0,"parameterNumber":2,"parameterNumberName":"U-component_of_WINDS"},"data":[0,0,0,0,0,0,0,0,0,0,0,0,0,0,0,0,0,0,0,0,0,0,0,0,0,0,0,0,0,0,0,0,0,0,0,0,0,0,0,0,0,0,0,0,0,0,0,0,0,0,0,0,0,0,0,0,0,0,0.1718,0.1717,0,0.1653,0.1652,0.1651,0.1607,0.1607,0.1606,0.1606,0.154,0.1539,0.1538,0,0,0,0,0,0,0,0,0,0,0,0,0,0.1805,0.1803,0.1718,0.1717,0.1716,0.1653,0.1652,0.1651,0.1607,0.1607,0.1606,0.1606,0.1541,0.1539,0.1537,0,0,0,0,0,0,0,0,0,0,0,0,0,0.1756,0.1803,0.1718,0.1686,0.1683,0.1653,0.1652,0.1651,0.1607,0.1606,0.1606,0.1606,0.1541,0.1539,0.1537,0.1534,0,0,0.1531,0.153,0,0,0,0,0,0,0,0,0.1759,0.1753,0.1692,0.1689,0.1685,0.1637,0.1659,0.1612,0.1607,0.1636,0.1606,0.1605,0.1573,0.1568,0.1557,0.1531,0.1528,0.153,0.1529,0.1528,0.1528,0,0,0,0,0,0,0,0.1762,0.1756,0.1692,0.1691,0.1687,0.1676,0.1669,0.165,0.1608,0.1633,0.163,0.1623,0.1571,0.1559,0.1555,0.1527,0.153,0.1529,0.1527,0.1526,0.1495,0.1496,0,0,0,0,0,0,0.1771,0.1759,0.1694,0.169,0.1721,0.1675,0.1667,0.1653,0.1608,0.1601,0.1623,0.1621,0.1563,0.1558,0.1553,0.1547,0.1528,0.1526,0.1525,0.1495,0.1495,0.1496,0,0,0,0,0,0,0.1773,0.1765,0.1697,0.1724,0.1714,0.1674,0.1659,0.1652,0.164,0.1601,0.1593,0.1619,0.1563,0.1556,0.1539,0.1544,0.1525,0.1523,0.1494,0.1495,0.1496,0.1534,0,0,0,0,0,0,0.1775,0.1766,0.1764,0.1724,0.1713,0.1684,0.1659,0.1651,0.1637,0.1633,0.1595,0.1588,0.1562,0.1542,0.1537,0.154,0.1522,0.1494,0.1495,0.1496,0.1532,0.1536,0.1539,0,0,0,0,0,0.1779,0.1778,0.1764,0.1757,0.1709,0.1684,0.1678,0.1648,0.1637,0.1635,0.161,0.1589,0.1544,0.1541,0.1534,0.1537,0.1493,0.1494,0.1495,0.153,0.1535,0.1539,0,0,0,0,0,0,0.182,0.1772,0.1756,0.1742,0.1718,0.1677,0.1673,0.1653,0.1631,0.1629,0.1593,0.1585,0.1572,0.1553,0.155,0.1532,0.1516,0.1516,0.1545,0.1549,0.1553,0.1558,0.152,0,0,0,0,0,0.1827,0.181,0.1769,0.1761,0.1749,0.1713,0.1701,0.168,0.1653,0.1643,0.1616,0.1591,0.1571,0.1559,0.1539,0.1529,0.152,0.1528,0.1531,0.1534,0.1535,0.1529,0.1532,0.1499,0.1499,0.1499,0,0,0.1842,0.1814,0.1805,0.1768,0.1747,0.1731,0.1705,0.1689,0.1677,0.164,0.1623,0.1603,0.1572,0.1559,0.1552,0.1543,0.1542,0.1536,0.1539,0.1537,0.1531,0.1534,0.1536,0.15,0.15,0.15,0,0,0.1861,0.1838,0.1829,0.1808,0.1775,0.1752,0.175,0.1712,0.1697,0.1679,0.1651,0.1637,0.1603,0.1583,0.1569,0.1581,0.1562,0.1576,0.1594,0.1589,0.1592,0.1594,0.1599,0.1601,0.1576,0.1576,0.1576,0,0.1884,0.1858,0.1826,0.1812,0.1797,0.1763,0.1754,0.1735,0.1698,0.1689,0.1679,0.1637,0.1614,0.1596,0.16,0.1589,0.1586,0.158,0.1594,0.1596,0.1597,0.1602,0.1604,0.1578,0.1578,0.1578,0.1578,0,0.1889,0.1871,0.1868,0.1833,0.1817,0.1806,0.1772,0.176,0.1741,0.1719,0.1701,0.1673,0.1646,0.1641,0.1621,0.162,0.1616,0.16,0.1584,0.1603,0.1607,0.1608,0.1581,0.158,0.158,0.1579,0,0,0.1932,0.188,0.1879,0.1863,0.1825,0.1812,0.1799,0.1773,0.1764,0.174,0.1728,0.1701,0.1687,0.1671,0.1649,0.1645,0.1658,0.163,0.1628,0.1636,0.1655,0.1668,0.167,0.1644,0.1644,0.1645,0.1658,0,0.1946,0.192,0.1892,0.1877,0.1861,0.1829,0.1818,0.1794,0.1773,0.1757,0.1734,0.1716,0.1698,0.1688,0.1682,0.1657,0.1661,0.1656,0.1634,0.1634,0.1643,0.1672,0.1685,0.1699,0.1659,0.166,0.166,0,0.1958,0.1936,0.192,0.1884,0.1877,0.1867,0.1842,0.1826,0.1799,0.1784,0.1766,0.1743,0.1729,0.1714,0.1694,0.1691,0.168,0.1667,0.1667,0.1664,0.1648,0.1671,0.1703,0.1705,0.1662,0.1662,0.1661,0,0.1992,0.1958,0.1944,0.1931,0.1889,0.1884,0.1866,0.1838,0.1825,0.1803,0.1794,0.177,0.1758,0.174,0.1712,0.1703,0.1695,0.1678,0.1683,0.1684,0.1683,0.1684,0.1715,0.1676,0.1676,0.1676,0.1675,0,0.2011,0.2003,0.1959,0.195,0.194,0.1907,0.1898,0.1878,0.1853,0.1841,0.1812,0.1801,0.1763,0.1748,0.1726,0.1713,0.1708,0.1696,0.169,0.1698,0.17,0.1691,0.169,0.1676,0.1676,0.1676,0.1676,0,0.2047,0.2018,0.2,0.1962,0.1953,0.1947,0.1915,0.1905,0.1883,0.1867,0.1862,0.1827,0.1807,0.1777,0.1749,0.1734,0.1725,0.1715,0.1735,0.1731,0.1739,0.1739,0.1765,0.1768,0.1727,0.1727,0.1728,0,0.2062,0.2054,0.2016,0.2005,0.1989,0.1972,0.1958,0.1926,0.1913,0.1882,0.1877,0.1855,0.1836,0.1807,0.1779,0.1757,0.1747,0.1758,0.1743,0.1753,0.1748,0.1749,0.1748,0.1761,0.1762,0.1762,0.1763,0,0.209,0.2076,0.2058,0.2034,0.2019,0.1999,0.1977,0.197,0.1933,0.192,0.19,0.1886,0.1857,0.1836,0.181,0.1793,0.1772,0.1768,0.1768,0.1777,0.1788,0.1783,0.1744,0.1767,0.1767,0.1766,0.1766,0.1766,0.2116,0.2109,0.2081,0.2061,0.2042,0.2023,0.2012,0.1989,0.1971,0.1945,0.1928,0.1909,0.1882,0.1846,0.1829,0.1815,0.1806,0.1806,0.1806,0.1806,0.181,0.1791,0.181,0.181,0.1809,0.1809,0.1809,0,0.2144,0.2125,0.2107,0.2078,0.2063,0.2045,0.202,0.2009,0.1993,0.197,0.1952,0.1929,0.1909,0.188,0.1858,0.1852,0.1842,0.1847,0.1847,0.1844,0.1819,0.1821,0.1855,0.1855,0.1855,0.1855,0.1855,0.1855,0.2157,0.2143,0.2126,0.2103,0.2084,0.2065,0.2053,0.2035,0.2017,0.1993,0.1976,0.1957,0.1932,0.1908,0.1889,0.1881,0.1874,0.1883,0.1872,0.1849,0.1845,0.1841,0.1843,0.1881,0.1881,0.1898,0.1898,0.1898]},{"header":{"parameterUnit":"m.s-1","parameterCategory":1,"la1":30.2991,"la2":30.254,"lo1":-89.0895,"lo2":-89.0444,"dx":0.0017,"dy":0.0017,"nx":28,"ny":28,"refTime":"2023-01-17T09:00:00:Z","depth":0,"parameterNumber":3,"parameterNumberName":"V-component_of_WINDS"},"data":[0,0,0,0,0,0,0,0,0,0,0,0,0,0,0,0,0,0,0,0,0,0,0,0,0,0,0,0,0,0,0,0,0,0,0,0,0,0,0,0,0,0,0,0,0,0,0,0,0,0,0,0,0,0,0,0,0,0,5.8748,5.875,0,5.8935,5.8937,5.8939,5.8964,5.8963,5.8961,5.8959,5.9146,5.9152,5.9159,0,0,0,0,0,0,0,0,0,0,0,0,0,5.841,5.8416,5.8748,5.875,5.8753,5.8935,5.8937,5.894,5.8965,5.8963,5.896,5.8959,5.9143,5.9151,5.9159,0,0,0,0,0,0,0,0,0,0,0,0,0,5.8573,5.8418,5.8747,5.8787,5.8793,5.8934,5.8937,5.894,5.8965,5.8963,5.896,5.8958,5.9141,5.915,5.916,5.9273,0,0,5.919,5.9195,0,0,0,0,0,0,0,0,5.8563,5.8585,5.8779,5.8785,5.8791,5.8924,5.8886,5.9052,5.8966,5.89,5.8959,5.8956,5.9074,5.9089,5.9129,5.9282,5.929,5.9191,5.9197,5.9201,5.9204,0,0,0,0,0,0,0,5.8552,5.8577,5.8822,5.8782,5.8789,5.8795,5.8815,5.8918,5.8999,5.8905,5.8907,5.8929,5.9076,5.912,5.9134,5.9293,5.9191,5.92,5.9206,5.921,5.9551,5.9554,0,0,0,0,0,0,5.8534,5.8567,5.8816,5.8827,5.8669,5.8803,5.8826,5.8884,5.8998,5.9013,5.8931,5.893,5.9104,5.9122,5.9141,5.9284,5.9201,5.9211,5.9216,5.9548,5.9552,5.9555,0,0,0,0,0,0,5.8527,5.8556,5.8808,5.8698,5.8731,5.8812,5.8877,5.8889,5.8933,5.9018,5.9032,5.8961,5.9103,5.9127,5.9241,5.929,5.9215,5.9224,5.9544,5.9549,5.9554,5.9569,0,0,0,0,0,0,5.8517,5.8553,5.8598,5.8699,5.8737,5.8907,5.888,5.8894,5.895,5.895,5.905,5.9064,5.9103,5.9227,5.9251,5.9303,5.9232,5.954,5.9546,5.9552,5.9564,5.9573,5.9581,0,0,0,0,0,5.8505,5.8593,5.86,5.863,5.8794,5.891,5.8931,5.8976,5.8954,5.8999,5.9054,5.906,5.928,5.9238,5.9266,5.9321,5.9537,5.9545,5.9552,5.9561,5.9572,5.9581,0,0,0,0,0,0,5.8493,5.8607,5.8616,5.8739,5.8815,5.8914,5.8972,5.8986,5.9068,5.9064,5.9114,5.9136,5.9249,5.9296,5.9247,5.9438,5.9407,5.942,5.9404,5.9415,5.9424,5.9411,5.924,0,0,0,0,0,5.8505,5.859,5.8684,5.8784,5.8822,5.8891,5.8942,5.8971,5.905,5.9082,5.9145,5.9221,5.9308,5.9364,5.9448,5.957,5.9594,5.9622,5.9631,5.9637,5.9648,5.972,5.9734,5.9578,5.9578,5.9578,0,0,5.853,5.8603,5.8653,5.8784,5.8846,5.8933,5.8917,5.9009,5.9075,5.9095,5.9209,5.9258,5.9346,5.9466,5.9522,5.9509,5.9697,5.9646,5.9651,5.9659,5.9729,5.9743,5.9756,5.9583,5.9582,5.9582,0,0,5.8621,5.8684,5.8776,5.8839,5.8934,5.8979,5.9001,5.9099,5.9133,5.9248,5.9267,5.9344,5.9491,5.9554,5.9606,5.9723,5.9733,5.9748,5.9794,5.9862,5.9875,5.9886,5.9931,5.9946,5.9759,5.9759,5.9759,0,5.864,5.8774,5.8821,5.8914,5.8972,5.8997,5.9091,5.9148,5.9265,5.9304,5.9287,5.9476,5.9536,5.9673,5.9702,5.9741,5.9769,5.9738,5.9869,5.9881,5.9892,5.9936,5.9952,5.9761,5.976,5.976,5.976,0,5.8794,5.8886,5.8949,5.9064,5.9129,5.9221,5.9282,5.9341,5.9364,5.9411,5.9529,5.9602,5.9704,5.9737,5.9759,5.9878,5.9867,5.9859,5.9829,5.9908,5.995,5.9966,5.9763,5.9762,5.9762,5.9761,0,0,5.8883,5.9025,5.9048,5.9102,5.9209,5.9281,5.9374,5.9476,5.9527,5.9606,5.9687,5.9812,5.9807,5.9865,5.9894,5.9954,6.0046,5.9939,5.9942,5.9959,6.0185,6.0192,6.0211,6.0052,6.0055,6.0058,6.0179,0,5.8989,5.916,5.9206,5.9351,5.9438,5.9463,5.9545,5.962,5.9666,5.9746,5.9796,5.9886,5.987,5.9906,5.9966,6.0022,6.0092,6.0013,6.0129,6.0132,6.0109,6.0232,6.024,6.035,6.0195,6.0197,6.0199,0,5.9136,5.9222,5.9376,5.9475,5.9513,5.9587,5.9685,5.976,5.9845,5.9875,5.9941,5.9965,6.0064,6.0027,6.0165,6.0111,6.016,6.0195,6.02,6.0214,6.0173,6.0252,6.0386,6.0404,6.0225,6.0223,6.0221,0,5.919,5.9343,5.9457,5.9501,5.9618,5.967,5.9721,5.9804,5.9862,5.9947,5.9986,6.0079,6.0131,6.0203,6.0252,6.022,6.0387,6.0353,6.0415,6.0414,6.0451,6.0448,6.0597,6.0478,6.0478,6.0477,6.0477,0,5.9305,5.9399,5.9483,5.9553,5.9659,5.971,5.9814,5.9865,5.9939,6.0019,6.0045,6.0119,6.0178,6.026,6.0298,6.0408,6.043,6.0457,6.0467,6.0457,6.0454,6.0492,6.0487,6.0482,6.0481,6.048,6.0479,0,5.9384,5.9443,5.9569,5.9671,5.9698,5.9773,5.9859,5.9928,5.9975,6.0077,6.0103,6.0178,6.0276,6.0332,6.0454,6.048,6.0603,6.0607,6.0576,6.0581,6.0641,6.0635,6.0821,6.0849,6.0708,6.071,6.0711,0,5.9455,5.9528,5.9639,5.9696,5.9748,5.9838,5.99,5.9953,6.0015,6.0119,6.0175,6.0276,6.036,6.0515,6.058,6.0674,6.0683,6.0741,6.0697,6.0686,6.0687,6.0684,6.0693,6.075,6.0751,6.0752,6.0753,0,5.9576,5.9602,5.969,5.979,5.9863,5.9942,6.0022,6.0066,6.0132,6.0201,6.0304,6.0368,6.0496,6.0596,6.0696,6.0747,6.0762,6.0766,6.0786,6.0778,6.0758,6.0773,6.06,6.0762,6.0761,6.076,6.076,6.0759,5.9655,5.9723,5.9813,5.991,5.9976,6.005,6.0121,6.0179,6.0266,6.0376,6.0401,6.0509,6.0594,6.0731,6.0785,6.087,6.0859,6.0887,6.0895,6.0902,6.0906,6.0742,6.0888,6.0887,6.0887,6.0887,6.0887,0,5.978,5.984,5.9929,6.0041,6.0118,6.0127,6.0215,6.0279,6.0375,6.0454,6.0536,6.0655,6.0753,6.0825,6.0925,6.098,6.0989,6.1004,6.1002,6.1014,6.0908,6.0882,6.0995,6.0995,6.0995,6.0995,6.0995,6.0995,5.9855,5.9971,6.0009,6.0158,6.0217,6.0325,6.0376,6.0444,6.0508,6.064,6.0723,6.077,6.0847,6.0953,6.1043,6.1062,6.1098,6.1114,6.1133,6.1033,6.1021,6.101,6.0987,6.112,6.112,6.1234,6.1235,6.1235]}]]